Powrót do katalogu

CZ-4 DEB

AktywnySSO
NORAD 37612·DEBRIS·🇨🇳 China

Wystrzelony Sep 3, 1990 z Taiyuan Satellite Launch Center

Loading…

Następne Przeloty (najbliższe 24 godziny)

TLE

Starzejące sięSource: Space-Track

Epoka: Sep 7, 2026, 08:59 UTC

1 37612U 90081CY  26250.37455141  .00001525  00000-0  35888-3 0  9990
2 37612  98.2631 290.2718 0027430 261.6217 110.6930 14.55543918695870

Śledź CZ-4 DEB w czasie rzeczywistym z AllMySat

Download on the App Store